www.pogodaiklimat.ru

Погода и климат >> Архив погоды >> Канада >> Hanbury River ARS


ПОГОДА в Hanbury River ARS

  • Прогноз погоды в Hanbury River ARS
  • Монитор погоды в Hanbury River ARS
  • Климат города

АРХИВ ПОГОДЫ в Hanbury River ARS

Время (UTC), дата Ветер
(напр.,м/с)
 
Видим.   Явления Облачность Т
(С)
Тd
(С)
f
(%)
Тe
(С)
Тes
(С)
Комфортность P
(гПа)
Po
(гПа)
Тmin
(С)
Tmax
(С)
R
(мм)
R24
(мм)
S
(см)
00 17.06 0 н/о н/о +19.4 +5.6 40 1012.5 973.8 +5.1 +20.2
03 17.06 0 н/о н/о +17.4 +4.6 43 1012.5 973.9
06 17.06 0 н/о н/о +7.2 +4.2 81 1012.6 973.7 +5.1 +20.2
09 17.06 0 н/о н/о +5.8 +3.8 87 1011.9 973.0
12 17.06 0 н/о н/о +8.8 +4.5 74 1011.8 973.1 +3.1 +20.2
15 17.06 0 н/о н/о +11.2 +3.2 58 1010.8 972.2
18 17.06 0 н/о н/о +13.9 +3.3 49 1010.3 971.4 +3.1 +17.9
21 17.06 0 н/о н/о +12.6 +3.7 55 1009.8 970.9
00 18.06 0 н/о н/о +15.7 +3.8 45 1009.0 970.3 +3.1 +21.0
03 18.06 0 н/о н/о +18.1 +5.5 43 1007.9 969.4
06 18.06 0 н/о н/о +8.1 +5.4 83 1011.8 972.9 +3.1 +21.0
09 18.06 0 н/о н/о +6.0 +5.6 97 1014.6 975.5
12 18.06 0 н/о н/о +6.7 +4.3 85 1016.0 977.0 +5.6 +21.0
21 18.06 0 н/о н/о +15.0 -0.8 34 1018.8 979.6
06 19.06 0 н/о н/о +5.7 +0.4 69 979.9
15 19.06 0 н/о н/о +14.0 +4.0 51 1016.7 977.8
18 19.06 0 н/о н/о +14.6 +4.1 49 1015.4 976.3
21 19.06 0 н/о н/о +18.3 +5.4 43 974.6
00 20.06 0 н/о н/о +17.2 +4.9 44 973.3 +19.8
03 20.06 0 н/о н/о +17.0 +7.6 54 1011.2 972.6
06 20.06 0 н/о н/о +10.7 +7.0 78 1010.7 972.0
09 20.06 0 н/о н/о +10.7 +8.2 85 1009.8 971.2
12 20.06 0 н/о н/о +12.2 +9.9 86 1009.9 971.3 +8.0
15 20.06 0 н/о н/о +19.8 +10.1 54 1010.1 971.8
18 20.06 0 н/о н/о +21.4 +11.0 51 1011.9 973.4 +8.0 +22.0
21 20.06 0 н/о н/о +20.9 +10.2 50 1013.8 975.2
00 21.06 0 н/о н/о +15.5 +7.6 59 1015.5 976.7 +8.0 +23.1
03 21.06 0 н/о н/о +13.7 +4.1 52 1016.2 977.5
06 21.06 0 н/о н/о +5.4 +1.9 78 1017.6 978.7 +5.3 +23.1
09 21.06 0 н/о н/о +5.3 +2.2 80 1019.0 980.0
12 21.06 0 н/о н/о +7.8 +1.1 63 1020.1 980.9 +4.0 +23.1
15 21.06 0 н/о н/о +10.3 -2.1 42 1020.0 980.9
18 21.06 0 н/о н/о +14.3 +1.2 41 1019.7 980.4 +4.0 +14.7
21 21.06 0 н/о н/о +15.8 +2.7 41 1018.8 979.6
00 22.06 0 н/о н/о +17.6 +4.1 41 1017.8 978.8 +4.0 +17.9
03 22.06 0 н/о н/о +15.9 +3.5 43 1016.7 977.8
06 22.06 0 н/о н/о +8.4 +2.3 65 1016.8 977.7 +4.0 +18.0
09 22.06 0 н/о н/о +6.3 +2.7 78 1016.5 977.4
12 22.06 0 н/о н/о +11.9 +2.8 54 1015.9 977.1 +5.3 +18.0
15 22.06 0 н/о н/о +16.4 +5.8 49 1015.2 976.5
18 22.06 0 н/о н/о +17.4 +5.7 46 1014.5 975.6 +5.3 +19.3
21 22.06 0 н/о н/о +19.2 +5.2 40 1013.8 975.0
00 23.06 0 н/о н/о +21.0 +6.5 39 1013.3 974.7 +5.3 +22.7
03 23.06 0 н/о н/о +13.7 +6.7 63 1014.1 975.4
06 23.06 0 н/о н/о +10.7 +5.6 71 1015.1 976.3
09 23.06 0 н/о н/о +8.4 +4.5 76 1015.5 976.7
12 23.06 0 н/о н/о +10.5 +4.7 67 1016.0 977.3
15 23.06 0 н/о н/о +15.6 +7.0 57 1016.1 977.3
18 23.06 0 н/о н/о +21.2 +8.8 45 1015.0 976.3 +21.2
21 23.06 0 н/о н/о +23.7 +5.8 31 1014.3 975.7

 

Местоположение метеостанции Hanbury River ARS (Канада): широта 63.58 долгота -105.15 высота над уровнем моря 317 м.

В архиве по умолчанию представлена погода в Hanbury River ARS за последнюю неделю. Архивные данные за месяц целиком и за предыдущие месяцы, начиная с января 2011 года, Вы можете получить, выбрав интересующий диапазон дат из раскрывающегося списка и нажав кнопку "Ввод!".


*Определитесь, кто Вы:
робот инопланетянин человек

Внимание! Время в таблицах - всемирное. Для получения местного времени необходимо прибавить поправку, которая в Hanbury River ARS равна -7 ч.

Смотрите также архив погоды в соседних городах и на ближайших метеорологических станциях:

Погода в Dubawnt Lake (Канада) (176 км)
Погода в Robertson Lake (Канада) (215 км)
Погода в Fort Reliance (aut) (Канада) (221 км)
Погода в Porter Lake (Канада) (270 км)
Погода в Lustel Ke A (Канада) (304 км)
Погода в Lupin (Канада) (377 км)
Погода в Lupin (maps) (Канада) (377 км)
Погода в Baker Lake Airport (Канада) (451 км)
Погода в Baker Lake Climate (Канада) (454 км)
Погода в Inner Whalebacks (Канада) (472 км)

Пояснения к столбцам:

Ветер - указаны скорость ветра в м/с - средняя за 10 мин, порывы в срок и между сроками (в фигурных скобках) и направление, откуда дует ветер: С - северный, СВ - северо-восточный, В - восточный, ЮВ - юго-восточный, Ю - южный, ЮЗ - юго-западный, З - западный, СЗ - северо-западный.
Видимость - горизонтальная дальность видимости в метрах или километрах. При видимости от 1 до 10 км при отсутствии осадков обычно наблюдается дымка, при ухудшении видимости до 1 км и менее - туман. В сухую погоду видимость может ухудшаться дымом, пылью или мглою.
Явления - указаны атмосферные явления, наблюдавшиеся в срок или в последний час перед сроком; фигурными скобками обозначены явления, наблюдавшиеся между сроками (за 1-3 часа до срока); квадратными скобками обозначены град или гололедные отложения с указанием их диаметра в мм.
Облачность - указаны через наклонную черту общая и нижняя облачность в баллах и высота нижней границы облаков в метрах; квадратными скобками обозначены формы облаков: Ci - перистые, Cs - перисто-слоистые, Cc - перисто-кучевые, Ac - высококучевые, As - высокослоистые, Sc - слоисто-кучевые, Ns - слоисто-дождевые, Cu - кучевые, Cb - кучево-дождевые. Подробнее классификацию облаков см. в Атласе облаков (PDF).
T - Температура воздуха - температура, измеренная на высоте 2 м над землей.
Td - Температура точки росы - температура, при понижении до которой содержащийся в воздухе водяной пар достигнет насыщения.
f - Относительная влажность воздуха - влажноcть воздуха, измеренная на высоте 2 м над землей.
Te - Эффективная температура - температура, которую ощущает одетый по сезону человек в тени. Характеристика душности погоды. При расчете учитывается влияние влажности воздуха и скорости ветра на теплоощущения человека.
Tes - Эффективная температура на солнце - температура, которую ощущает человек, с поправкой на солнечный нагрев. Характеристика знойности погоды. Зависит от высоты солнца над горизонтом, облачности и скорости ветра. Ночью, в пасмурную погоду, а также при ветре 12 м/с и более поправка равна нулю.
P - Атмосферное давление - приведенное к уровню моря атмосферное давление.
Po - Атмосферное давление - измеренное на уровне метеостанции атмосферное давление.
Tmin - Минимальная температура - минимум температуры воздуха на высоте 2 м над землей.
Tmax - Максимальная температура - максимум температуры воздуха на высоте 2 м над землей.
R - Количество осадков - Количество выпавших осадков за период времени, мм. При наведении курсора мыши на число - период времени, за который выпало указанное количество осадков.
R24 - Количество осадков - Количество выпавших осадков за 24 часа, мм.
S - Снежный покров - Высота снежного покрова, см. При наведении курсора мыши на число - состояние снежного покрова и степень покрытия местности в баллах.